DW1477 Lanjaron ES current weather conditions

sailwx.info

Wind from 263 at 1 knots gusting 6

Air temperature 19.4° C
Dewpoint 5.8° C

Last reported at 2020-Feb-26 13:52 UTC.
Time now 2020-Feb-26 15:51 UTC

Location: N 36°55' W 003°28'.
View on Google Maps.

See reports from other nearby stations

  
Tides and Currents Weather Stations Pressure Air Temp Water Temp Dewpoint Dewpoint Depression Visibility Wind Speed Wind Dir Waves Ship Positions
date/time (UTC)wind fromknots sea level pressurealtimeterstation pressurevisibilityair tempwater tempwave heightnotes
2020-Feb-26 13:52 263 1 gusting 6 19.4
2020-Feb-26 13:42 271 1 gusting 6 19.4
2020-Feb-26 12:52 205 0 gusting 4 18.3
2020-Feb-26 12:02 243 17.8
2020-Feb-26 10:02 121 12.2
2020-Feb-26 09:32 122 11.1
2020-Feb-26 09:12 124 10.6
2020-Feb-26 09:02 128 10.0
2020-Feb-26 08:32 142 8.9
2020-Feb-26 07:55 154 8.3
2020-Feb-26 07:32 157 7.8
2020-Feb-26 07:12 157 7.8
2020-Feb-26 06:21 157 7.8
2020-Feb-26 05:01 159 7.2
2020-Feb-26 04:31 159 0 gusting 2 6.7
2020-Feb-26 04:11 159 6.7
2020-Feb-26 03:21 159 7.2
2020-Feb-26 03:01 159 7.2
2020-Feb-26 02:41 159 7.2
2020-Feb-26 02:21 159 7.2
2020-Feb-26 02:01 159 7.2
2020-Feb-26 01:41 159 7.8
2020-Feb-25 23:02 159 10.6
2020-Feb-25 22:51 159 11.1
2020-Feb-25 22:41 159 11.1
2020-Feb-25 22:21 159 11.1
2020-Feb-25 21:51 165 11.1
2020-Feb-25 21:41 166 11.1
2020-Feb-25 20:12 167 0 gusting 4 13.9
2020-Feb-25 19:02 185 1 gusting 8 15.6
2020-Feb-25 18:32 239 3 gusting 8 16.1
2020-Feb-25 17:32 260 2 gusting 10 18.3
2020-Feb-25 16:52 250 6 gusting 13 20.0
2020-Feb-25 16:42 262 6 gusting 13 20.0
2020-Feb-25 15:51 239 4 gusting 10 21.1
2020-Feb-25 14:51 274 3 gusting 12 20.6
2020-Feb-25 11:21 079 19.4
2020-Feb-25 09:41 304 14.4
2020-Feb-25 09:31 304 13.9
2020-Feb-25 09:21 303 13.9
2020-Feb-25 05:51 298 7.8
2020-Feb-25 04:21 295 8.9
2020-Feb-25 04:11 294 8.9
2020-Feb-25 04:01 294 8.9
2020-Feb-25 03:51 294 9.4
2020-Feb-25 03:41 294 9.4
2020-Feb-25 02:21 294 0 gusting 4 10.6
2020-Feb-25 01:51 294 9.4
2020-Feb-25 01:41 294 10.0
2020-Feb-25 01:21 294 10.6
2020-Feb-25 00:41 282 0 gusting 2 10.6
2020-Feb-24 22:51 282 10.0
2020-Feb-24 22:41 282 10.0
2020-Feb-24 22:31 282 10.6
2020-Feb-24 22:01 282 10.6
2020-Feb-24 21:31 282 10.0
2020-Feb-24 20:11 282 10.6
2020-Feb-24 19:51 282 10.6
2020-Feb-24 19:41 282 11.1
2020-Feb-24 18:51 282 12.8
2020-Feb-24 17:21 282 19.4
2020-Feb-24 17:11 282 19.4
2020-Feb-24 16:41 282 20.0
2020-Feb-24 16:32 282 20.0
2020-Feb-24 16:11 282 20.0
2020-Feb-24 16:01 282 20.0
2020-Feb-24 15:51 282 20.0
2020-Feb-24 15:21 278 0 gusting 2 19.4
2020-Feb-24 15:11 279 0 gusting 2 20.0